Location: Haut Kerinec
(48.0623°N, 4.4081°W)
Time: 10:48:26
(UTC+00:00)

ATLAS CENTAUR R/B - Pass Details

Date: 01 June 2020
Orbit: 474 x 673 km, 64.7° (Epoch: 06 July)

Event Time Altitude Azimuth Distance (km) Brightness Sun altitude
Exits shadow 21:59:34 11° 102° (ESE) 1,835 3.6 -13.4°
Drops below altitude 10° 22:00:20 10° 91° (E) 1,900 3.7 -13.5°
Sets 22:03:58 0° 58° (ENE) 2,747 4.9 -13.8°
